User: anonymous   Login
Location: Mentone
(34.5413°N, 85.5351°W)
Time: 06:47:58
(UTC-05:00)
Language:

UOSAT-12 - Orbit

View from above orbital plane
View from above orbital plane
View from above satellite
View from above satellite

Ground track
Ground track

The orbit data is extracted from the following two-line orbital elements,

1 25693U 99021A   15184.42059442  .00000010  00000-0  20367-4 0  9998
2 25693 064.5545 168.2261 0040942 238.5826 281.3479 14.80471241874347
Epoch (UTC): 03 July 2015 10:05:39
Eccentricity: 0.0040942
inclination: 64.5545°
perigee height: 599 km
apogee height: 656 km
right ascension of ascending node: 168.2261°
argument of perigee: 238.5826°
revolutions per day: 14.80471241
mean anomaly at epoch: 281.3479°
orbit number at epoch: 87434

The dashed part of the orbit path shows where the satellite is in the earth's shadow,  

DLR